1st Responders/1st Detectors/Storm Spotters Weather Summary for Whitley County, KY

Forecast Maps


Reg. NEXRAD Animation


National Fire Danger: Day 1 & 2 Map

Current NWS Watch/Warnings

SPC Convective Day 1 Outlook


Day 2 Outlook

(Click images to enlarge|Page will refresh every 5 minutes)
UK Ag. Weather Center Desktop Severe Weather Service[HERE]
Whitley County, KY Hazardous Weather Outlook Webcast
(9 AM to 9 PM Mon-Fri)
[Fast]
[Dial-up]


UKAWC 1st Detectors/1st Responders Precision Weather Forecast For WHITLEY County, Kentucky
(based on the NWS County Digital Forecast)

ISSUED AT 23:00 UTC ON THURSDAY OCT 29 2020
DAY THURSDAY FRIDAY
EDT 3HR 8P 9P 10P 11P MIDN 1A 2A 3A 4A 5A 6A 7A 8A 9A 10A 11A NOON 1P 2P 3P 4P 5P 6P 7P
MAX/MIN 74° -- -- -- -- -- -- -- -- -- -- -- 43° -- -- -- -- -- -- -- -- -- -- 49°
TEMP 58° 56° 54° 52° 50° 49° 47° 47° 45° 45° 45° 43° 43° 43° 43° 43° 45° 45° 47° 47° 47° 49° 47° 45°
SKY COVER 88% 92% 95% 97% 99% 100% 100% 100% 100% 99% 97% 95% 94% 95% 97% 97% 93% 87% 79% 69% 58% 47% 38% 30%
Clouds
DEW PT 54° 52° 52° 50° 49° 47° 45° 45° 45° 43° 43° 43° 41° 41° 40° 40° 40° 40° 38° 38° 38° 38° 38° 36°
RH 86% 86% 89% 92% 92% 89% 93% 92% 95% 95% 92% 95% 92% 92% 89% 89% 82% 79% 73% 71% 68% 65% 67% 70%
POP 12HR 87% -- -- -- -- -- -- -- -- -- -- -- 77% -- -- -- -- -- -- -- -- -- -- --
RAIN/SNOW (liq.equ) 0.08in -- -- -- -- -- 0.09in -- -- -- -- -- 0.00in -- -- -- -- -- 0.00in -- -- -- -- --
SNOWFALL 0in -- -- -- -- -- 0in -- -- -- -- -- 0in -- -- -- -- -- 0in -- -- -- -- --
WIND SPEED(MPH) 7 7 7 8 8 8 9 7 7 7 7 7 6 7 7 7 7 7 7 7 6 6 5 2
WIND Gust(MPH) 15 15 15 15 15 13 15 10 10 8 8 8 7 8 10 10 10 8 8 8 7 7 7 5
WIND DIR W W NW NW NW NW NW NW NW NW NW NW NW NW NW NW NW NW NW NW NW N N N
DEW Mod Dew -- -- -- -- -- -- -- -- -- -- -- -- -- -- -- -- Mod Dew Lgt Dew Lgt Dew Lgt Dew -- Lgt Dew Lgt Dew
HeatIndex 58 56 54 52 50 49 47 47 45 41 41 40 40 40 39 39 40 45 47 47 47 49 47 45
Rain -- Chance Chance Definite Likely Chance Chance Slight Chance -- -- -- -- -- -- -- -- -- -- -- -- -- -- -- --
Fog -- -- -- -- Patchy Patchy Patchy -- -- -- -- -- -- -- -- -- -- -- -- -- -- -- -- --
Frost -- -- -- -- -- -- -- -- -- -- -- -- -- -- -- -- -- -- -- -- -- -- -- --
WIND CHILL -- -- -- -- -- -- -- -- 41° 41° 41° 39° 39° 39° 39° 39° 41° 41° -- -- -- -- -- --
SPRAY COND
DRY COND
LIVESTOCK COLDSTRESS
LIVESTOCK HEATSTRESS 58.06 56.22 54.29 52.30 50.39 49.59 47.45 47.52 45.38 45.38 45.61 43.43 43.70 43.70 43.96 43.96 46.37 46.59 48.75 48.88 49.08 50.89 49.14 47.28



DAY SATURDAY SATURDAY SUNDAY MONDAY TUESDAY WEDNESDAY THURSDAY
EDT 6HR 8P 9P 10P 11P MIDN 1A 2A 3A 4A 5A 6A 7A 8A 11A 2P 5P 8P 11P 2A 5A 8A 11A 2P 5P 8P 2A 8A 2P 8P 2A 8A 2P 8P 2A 8A 2P 8P 2A 8A 2P 8P
MAX/MIN -- -- -- -- -- -- -- -- -- -- -- -- 34° -- -- 61° -- -- -- -- 45° -- -- 58° -- -- 27° 47° -- -- 29° 58° -- -- 36° 65° -- -- 41° 67° --
TEMP 45° 43° 41° 40° 40° 38° 38° 38° 36° 36° 34° 34° 34° 47° 58° 59° 49° 45° 45° 47° 47° 54° 58° 54° 45° 34° 27° 43° 38° 32° 31° 54° 47° 40° 38° 63° 52° 45° 43° 65° 56°
SKY COVER 24% 18% 15% 12% 11% 11% 12% 12% 12% 12% 13% 14% 14% 8% 19% 32% 48% 59% 65% 76% 74% 57% 48% 27% 12% 21% 10% 3% 2% 5% 7% 1% 2% 3% 7% 8% 30% 40% 40% 45% 45%
Clouds
DEW PT 36° 36° 36° 36° 36° 36° 36° 36° 36° 34° 34° 34° 32° 36° 38° 40° 43° 43° 43° 45° 45° 45° 43° 38° 31° 23° 20° 22° 25° 25° 25° 31° 36° 36° 34° 40° 43° 41° 40° 45° 45°
RH 73% 78% 81% 85% 88% 92% 95% 92% 96% 96% 95% 99% 91% 62% 46% 49% 76% 88% 88% 89% 92% 71% 59% 52% 57% 66% 77% 40% 58% 74% 77% 39% 64% 81% 85% 42% 71% 85% 88% 46% 69%
POP 12HR 2% -- -- -- -- -- -- -- -- -- -- -- 0% -- -- -- 0% -- -- -- 1% -- -- -- 6% -- 0% -- 1% -- 0% -- 1% -- 0% -- 0% -- 0% -- 2%
RAIN/SNOW (liq.equ) 0.00in -- -- -- -- -- 0.00in -- -- -- -- -- 0.00in -- 0.00in -- 0.00in -- 0.00in -- 0.00in -- 0.00in -- 0.00in -- -- -- -- -- -- -- -- -- -- -- -- -- -- -- --
SNOWFALL 0in -- -- -- -- -- 0in -- -- -- -- -- 0in -- 0in -- 0in -- 0in -- 0in -- 0in -- 0in -- -- -- -- -- -- -- -- -- -- -- -- -- -- -- --
WIND SPEED(MPH) 2 2 2 2 2 2 2 1 1 0 0 0 0 2 5 5 2 5 5 6 7 9 13 10 7 7 2 6 2 1 1 5 1 1 2 6 2 2 1 5 1
WIND DIR N N NE NE NE E E E E E E E E E S S S S S SW SW W W W NW NW NW NW W SW SW SW SW S S S S S S S S
HeatIndex 43 41 40 38 37 36 35 38 36 36 34 34 34 47 58 59 49 45 45 47 47 54 58 54 40 27 23 40 35 32 31 54 47 40 35 63 52 45 43 65 56
Rain -- -- -- -- -- -- -- -- -- -- -- -- -- -- -- -- -- -- -- -- -- -- -- -- -- -- -- -- -- -- -- -- -- -- -- -- -- -- -- -- --
Fog -- -- -- -- -- -- -- -- -- -- -- -- -- -- -- -- -- -- -- -- -- -- -- -- -- -- -- -- -- -- -- -- -- -- -- -- -- -- -- -- --
Frost -- -- -- -- -- -- -- -- -- -- Areas of Areas of Areas of -- -- -- -- -- -- -- -- -- -- -- -- -- Widespread -- -- Widespread Widespread -- -- -- -- -- -- -- -- -- --
WIND CHILL -- -- -- -- -- -- -- -- -- -- -- -- -- -- -- -- -- 43° 43° -- -- -- -- -- 41° 28° -- 39° -- -- -- -- -- -- -- -- -- -- -- -- --
SPRAY COND
DRY COND
LIVESTOCK COLDSTRESS
LIVESTOCK HEATSTRESS 47.05 44.91 42.86 41.55 41.24 38.92 38.57 38.92 36.50 36.50 34.68 34.14 35.23 49.47 58.24 58.94 50.29 45.91 45.91 47.71 47.52 54.77 58.18 55.27 48.26 38.64 31.02 48.21 42.80 35.83 34.52 55.61 49.34 41.96 39.72 61.66 53.08 46.14 44.04 63.16 56.48

Click on individual weather variable above in left-hand column (ie., TEMP, RH, QPF 12HR) to view state forecast maps






NWS 48 Hr. Forecast Maps,

Regional Hourly Observations For WHITLEY County, Kentucky
Issued at 700 PM EDT THU OCT 29 2020
SOUTHEAST KENTUCKY
  
CITY           SKY/WX    TMP DP  RH WIND       PRES   REMARKS
JACKSON        LGT RAIN  59  56  89 VRB3      29.59S                  
LONDON         CLOUDY    63  60  90 NW7       29.60R                  
SOMERSET       CLOUDY    61  54  77 W13G23    29.64R                  
MIDDLESBORO    CLOUDY    66  66 100 NW6       29.57R                  
MONTICELLO     CLOUDY    62  59  90 W18G31    29.66R                  


Current NOWCAST not available:
Nowcasts are not issued routinely during fair weather. Only when
precipitation or other significant weather is occuring in this county will these
forecasts be issued. Currently, there is no short term forecast in effect.


Fire Weather Forecast For WHITLEY County, KY
Provided by the National Weather Service:

Issued at: Thu Oct 29 19:05:02 EDT 2020

405 PM EDT Thu Oct 29 2020

                      Tonight      Fri          Fri Night    Sat          

Cloud Cover           Cloudy       Mcldy        Mclear       Mclear       
Chance precip (%)     70           0            0            0            
Precip type           showers      None         None         None         
Temp (24H TREND)      42 (-20)     50 (-21)     32           62           
Rh % (24H TREND)      100 (0)      56 (-23)     100          42           
20ftwnd-AM(mph)                    NW 3-7 G16                Lgt/Var      
20ftwnd-PM(mph)       NW 6-10 G19  N 2-6 G13    Lgt/Var      Lgt/Var      
Precip duration       2                                                   
Precip begin          8 PM                                                
Precip end            8 AM                                                
Precip amount         0.08         0.00         0.00         0.00         
LAL                   1            1            1            1            
Haines Index (MID)                 2                         3            
Mixing hgt(ft-AGL)                 3600                      2200         
Transport wnd (mph)                N 10                      S  8         
Vent rate (kt-ft)                  31013                     16231        
ADI Early             27 Fair      36 Fair      3 Very Poor  19 Gen Poor  
ADI Late              28 Fair      34 Fair      4 Very Poor  23 Fair      
Max LVORI Early       5            4            7            7            
Max LVORI Late        6            3            9            3            

Remarks...None.


SPC's Fire Weather Web Tool (Excellent!), SPC's Fire Weather Outlooks, NWS Fire Weather WEB, Fire Danger Class Map,
Keetch-Byram Drought Index, ROMAN Web, Haines Index ,
WFAS's 10-hr Dead Fuel Moist., WFAS's 100-hr Dead Fuel Moist., Probablity of Ignition, Visual blackness Map, Palmer Drought Index, HPC's Rainfall Forecast Maps


Hazardous Weather Outlook For WHITLEY County, Kentucky
538 PM EDT Thu Oct 29 2020

 DAY ONE  Tonight.

No hazardous weather is expected at this time.  

 DAYS TWO THROUGH SEVEN  Friday through Wednesday.

Frost is likely area-wide Friday night. A killing freeze will be 
possible Sunday night.

 SPOTTER INFORMATION STATEMENT  

Spotter activation is not anticipated. 

Latest WHITLEY County, Kentucky Watches, Warnings and Advisories.
Additional Drought Info.: UKAWC Drought Page, Kentucky Drought Watch


7-Day Forecast For WHITLEY County, KY

TONIGHT
Cooler, cloudy. Showers likely in the evening, then a slight chance of showers late. Patchy fog through the night. Lows in the mid 40s. Northwest winds around 10 mph. Chance of rain 60 percent.

FRIDAY
Much cooler. Cloudy in the morning then becoming mostly sunny. Patchy fog early. Highs around 50. Light winds.

FRIDAY NIGHT
Cold. Mostly clear. Patchy fog. Areas of frost near dawn. Lows in the mid 30s. Light winds.

SATURDAY
Sunny. Areas of frost and patchy fog early. Highs in the lower 60s. Light winds.

SATURDAY NIGHT
Mostly cloudy. Lows in the mid 40s. Light winds.

SUNDAY
Mostly sunny. Highs in the upper 50s.

SUNDAY NIGHT
Cold. Mostly clear. Widespread frost. Lows in the upper 20s.

MONDAY
Sunny. Highs in the upper 40s.

MONDAY NIGHT
Cold, clear. Widespread frost. Lows around 30.

TUESDAY
Sunny. Highs in the upper 50s.

TUESDAY NIGHT
Clear. Lows in the upper 30s.

WEDNESDAY
Sunny. Highs in the mid 60s.

WEDNESDAY NIGHT
Partly cloudy. Lows in the lower 40s.

THURSDAY
Mostly sunny. Highs in the upper 60s.

Ag Weather Center, Department of Biosystems & Agricultural Engineering, University of Kentucky